Погода в Уке

Россия / Челябинская область     54°56′32″N   57°15′50″E
темп.,
°C
ветер,
м/с
пор.,
м/с
влажн.,
%
обл.,
%
осадки,
мм/ч
давл.,
гПа
погр.,
м
11 апреля, вс
вс1123:00+7в1193100 0.0 103112
02:00+5в1193100 0.0 103110
05:00+4в1194100 0.0 103211
08:00+6юв119154 0.0 103234
11:00+12юз366093 0.0 1032416
14:00+15юз484895 0.0 1031811
17:00+16зюз375575 0.0 1032852
20:00+9ююз1285100 0.0 103310
12 апреля, пн
пн1223:00+7ю1291100 0.0 103420
02:00+6ююв1193100 0.0 103518
05:00+5юв1196100 0.0 103611
08:00+7юз119297 0.0 103655
11:00+11ссз0071100 0.0 1036353
14:00+12ссв226895 0.0 1036511
17:00+11св2379100 0.3 1036324
20:00+8всв359399 0.1 1037153
13 апреля, вт
вт1323:00+7всв3693100 0.1 1037171
02:00+7в249493 0.0 103791
05:00+7всв2295100 0.0 103841
08:00+8в1194100 0.0 103810
11:00+10вюв0187100 0.0 1038115
14:00+13юв1272100 0.0 1037490
17:00+15юв125924 0.0 1036825
20:00+11св11808 0.0 103510
14 апреля, ср
ср1423:00+9вюв11867 0.0 103510
02:00+8ююв118913 0.0 103410
05:00+7ююз11915 0.0 103410
08:00+8ю11885 0.0 103449
11:00+13зюз116735 0.0 1032481
14:00+17зсз115447 0.0 1030825
17:00+17сз115118 0.0 1028930
20:00+13ссз11695 0.0 102710
15 апреля, чт
чт1523:00+11св11795 0.0 102710
02:00+9всв11855 0.0 102610
05:00+8всв118816 0.0 102610
08:00+9в11835 0.0 102539
11:00+15з00617 0.0 1023469
14:00+18з11485 0.0 10211046
17:00+19з11475 0.0 10201295
20:00+14сз11655 0.0 101811